[[{"header":{"parameterUnit":"m.s-1","parameterCategory":1,"la1":30.2991,"la2":30.254,"lo1":-89.0895,"lo2":-89.0444,"dy":0.0017,"dx":0.0017,"nx":28,"ny":28,"refTime":"2023-11-09T09:00:00:Z","depth":0,"parameterNumber":2,"parameterNumberName":"U-component_of_WINDS"},"data":[0,0,0,0,0,0,0,0,0,0,0,0,0,0,0,0,0,0,0,0,0,0,0,0,0,0,0,0,0,0,0,0,0,0,0,0,0,0,0,0,0,0,0,0,0,0,0,0,0,0,0,0,0,0,0,0,0,0,-1.6429,-1.6429,0,-1.6468,-1.6469,-1.6469,-1.6467,-1.6466,-1.6466,-1.6465,-1.6504,-1.6505,-1.6507,0,0,0,0,0,0,0,0,0,0,0,0,0,-1.635,-1.6351,-1.6429,-1.6429,-1.643,-1.6468,-1.6469,-1.6469,-1.6467,-1.6466,-1.6465,-1.6465,-1.6503,-1.6505,-1.6507,0,0,0,0,0,0,0,0,0,0,0,0,0,-1.6386,-1.6352,-1.6429,-1.6433,-1.6434,-1.6468,-1.6469,-1.647,-1.6467,-1.6466,-1.6465,-1.6464,-1.6503,-1.6505,-1.6507,-1.6539,0,0,-1.6514,-1.6515,0,0,0,0,0,0,0,0,-1.6384,-1.6389,-1.6432,-1.6433,-1.6434,-1.6462,-1.6455,-1.6493,-1.6467,-1.6454,-1.6465,-1.6464,-1.649,-1.6494,-1.6503,-1.654,-1.6542,-1.6514,-1.6516,-1.6517,-1.6518,0,0,0,0,0,0,0,-1.6382,-1.6387,-1.6444,-1.6433,-1.6434,-1.6433,-1.6437,-1.6462,-1.6477,-1.6456,-1.6455,-1.646,-1.6491,-1.6501,-1.6504,-1.6543,-1.6514,-1.6516,-1.6518,-1.6519,-1.6608,-1.6609,0,0,0,0,0,0,-1.6378,-1.6385,-1.6443,-1.6446,-1.6407,-1.6435,-1.644,-1.6454,-1.6476,-1.6479,-1.6461,-1.646,-1.6497,-1.6501,-1.6505,-1.6543,-1.6517,-1.6519,-1.652,-1.6607,-1.6608,-1.6609,0,0,0,0,0,0,-1.6377,-1.6384,-1.6442,-1.6416,-1.6423,-1.6437,-1.6453,-1.6455,-1.6465,-1.6481,-1.6483,-1.6469,-1.6496,-1.6502,-1.653,-1.6544,-1.652,-1.6522,-1.6606,-1.6607,-1.6609,-1.6619,0,0,0,0,0,0,-1.6374,-1.6383,-1.6395,-1.6416,-1.6424,-1.6467,-1.6454,-1.6456,-1.6469,-1.6468,-1.6488,-1.6491,-1.6496,-1.6527,-1.6533,-1.6547,-1.6524,-1.6605,-1.6607,-1.6608,-1.6618,-1.6621,-1.6624,0,0,0,0,0,-1.6372,-1.6397,-1.6396,-1.6403,-1.644,-1.6468,-1.6472,-1.6479,-1.647,-1.6483,-1.6493,-1.649,-1.6542,-1.653,-1.6536,-1.6552,-1.6604,-1.6606,-1.6608,-1.6617,-1.6621,-1.6624,0,0,0,0,0,0,-1.6377,-1.6399,-1.6399,-1.6431,-1.6448,-1.6467,-1.6483,-1.6483,-1.6501,-1.6499,-1.6506,-1.6511,-1.6539,-1.6548,-1.6534,-1.6583,-1.6572,-1.6575,-1.6576,-1.658,-1.6583,-1.6579,-1.6526,0,0,0,0,0,-1.6382,-1.6403,-1.6421,-1.6448,-1.6456,-1.6468,-1.648,-1.6484,-1.6501,-1.6507,-1.652,-1.6536,-1.6555,-1.6568,-1.6588,-1.662,-1.6624,-1.6633,-1.6636,-1.6639,-1.6641,-1.6659,-1.6663,-1.6616,-1.6616,-1.6616,0,0,-1.6392,-1.6407,-1.642,-1.6449,-1.6462,-1.6483,-1.6474,-1.6496,-1.6512,-1.6511,-1.6538,-1.6548,-1.6566,-1.6597,-1.6611,-1.6605,-1.6655,-1.6642,-1.6643,-1.6645,-1.6661,-1.6666,-1.667,-1.6618,-1.6618,-1.6617,0,0,-1.6421,-1.6435,-1.6459,-1.6472,-1.6492,-1.65,-1.6506,-1.6526,-1.6532,-1.656,-1.656,-1.6578,-1.6612,-1.6625,-1.6636,-1.6671,-1.6669,-1.6677,-1.6692,-1.6709,-1.6713,-1.6716,-1.6728,-1.6732,-1.668,-1.668,-1.668,0,-1.6431,-1.6463,-1.6471,-1.6494,-1.6506,-1.6507,-1.6531,-1.6543,-1.6568,-1.6577,-1.6571,-1.6614,-1.6626,-1.666,-1.6668,-1.6677,-1.6684,-1.6674,-1.6712,-1.6715,-1.6718,-1.6729,-1.6734,-1.6681,-1.6681,-1.6681,-1.6681,0,-1.6474,-1.6496,-1.6513,-1.6538,-1.6553,-1.6576,-1.6586,-1.66,-1.6603,-1.6611,-1.664,-1.6655,-1.6677,-1.6685,-1.6688,-1.6719,-1.6715,-1.671,-1.6699,-1.6723,-1.6734,-1.6738,-1.6682,-1.6682,-1.6682,-1.6681,0,0,-1.6507,-1.6536,-1.6542,-1.6553,-1.6575,-1.6592,-1.6615,-1.6638,-1.6649,-1.6667,-1.6686,-1.6715,-1.6711,-1.6724,-1.6728,-1.6743,-1.6768,-1.6736,-1.6737,-1.6741,-1.6803,-1.6805,-1.681,-1.6768,-1.6769,-1.6769,-1.6801,0,-1.6537,-1.6579,-1.6586,-1.6622,-1.6642,-1.6644,-1.6664,-1.6679,-1.6688,-1.6706,-1.6716,-1.6736,-1.673,-1.6737,-1.6752,-1.6762,-1.6781,-1.676,-1.6785,-1.6785,-1.6779,-1.6816,-1.6819,-1.6848,-1.6805,-1.6806,-1.6807,0,-1.6579,-1.6598,-1.6635,-1.6655,-1.6664,-1.6682,-1.6703,-1.672,-1.6738,-1.6744,-1.6758,-1.6761,-1.6784,-1.6772,-1.6804,-1.679,-1.6801,-1.6807,-1.6809,-1.681,-1.6797,-1.6817,-1.6857,-1.6861,-1.6813,-1.6813,-1.6812,0,-1.6597,-1.6632,-1.666,-1.6669,-1.6693,-1.6706,-1.6716,-1.6733,-1.6746,-1.6765,-1.6773,-1.6794,-1.6805,-1.6821,-1.6828,-1.6819,-1.686,-1.6849,-1.6864,-1.6864,-1.6871,-1.6871,-1.6912,-1.688,-1.688,-1.688,-1.688,0,-1.663,-1.6653,-1.6668,-1.6685,-1.671,-1.6719,-1.6744,-1.6754,-1.6769,-1.6787,-1.679,-1.6807,-1.6817,-1.6835,-1.6842,-1.6867,-1.6872,-1.6877,-1.6878,-1.6876,-1.6875,-1.6882,-1.688,-1.6881,-1.6881,-1.6881,-1.6881,0,-1.6655,-1.6666,-1.6696,-1.6716,-1.6722,-1.674,-1.6757,-1.6773,-1.6782,-1.6805,-1.6811,-1.6825,-1.6847,-1.6856,-1.6883,-1.6887,-1.6916,-1.6916,-1.691,-1.691,-1.6924,-1.6922,-1.6971,-1.6977,-1.6942,-1.6942,-1.6943,0,-1.6674,-1.6692,-1.6715,-1.6727,-1.6738,-1.6759,-1.6772,-1.6781,-1.6795,-1.6817,-1.683,-1.6852,-1.687,-1.6905,-1.6917,-1.6937,-1.6937,-1.6953,-1.694,-1.6938,-1.6936,-1.6935,-1.6936,-1.6955,-1.6955,-1.6955,-1.6956,0,-1.6708,-1.6713,-1.6732,-1.6754,-1.677,-1.6787,-1.6804,-1.6814,-1.6826,-1.6841,-1.6863,-1.6877,-1.6905,-1.6926,-1.6948,-1.6958,-1.6959,-1.696,-1.6964,-1.6962,-1.6957,-1.6959,-1.6915,-1.6958,-1.6958,-1.6958,-1.6958,-1.6958,-1.673,-1.6746,-1.6764,-1.6785,-1.6799,-1.6815,-1.6831,-1.6842,-1.6861,-1.6885,-1.6889,-1.6913,-1.693,-1.6959,-1.697,-1.6989,-1.6985,-1.6992,-1.6993,-1.6994,-1.6995,-1.6955,-1.6993,-1.6993,-1.6993,-1.6993,-1.6993,0,-1.6763,-1.6775,-1.6795,-1.6818,-1.6835,-1.6835,-1.6854,-1.6868,-1.6889,-1.6905,-1.6923,-1.6949,-1.697,-1.6984,-1.7005,-1.7017,-1.7018,-1.7022,-1.7021,-1.7023,-1.6997,-1.6991,-1.7021,-1.7021,-1.7021,-1.7021,-1.7021,-1.7021,-1.6782,-1.6808,-1.6815,-1.6848,-1.686,-1.6883,-1.6894,-1.6908,-1.6922,-1.695,-1.6968,-1.6977,-1.6993,-1.7015,-1.7034,-1.7038,-1.7045,-1.705,-1.7053,-1.7028,-1.7025,-1.7022,-1.7016,-1.7051,-1.7052,-1.7077,-1.7078,-1.7078]},{"header":{"parameterUnit":"m.s-1","parameterCategory":1,"la1":30.2991,"la2":30.254,"lo1":-89.0895,"lo2":-89.0444,"dy":0.0017,"dx":0.0017,"nx":28,"ny":28,"refTime":"2023-11-09T09:00:00:Z","depth":0,"parameterNumber":3,"parameterNumberName":"V-component_of_WINDS"},"data":[0,0,0,0,0,0,0,0,0,0,0,0,0,0,0,0,0,0,0,0,0,0,0,0,0,0,0,0,0,0,0,0,0,0,0,0,0,0,0,0,0,0,0,0,0,0,0,0,0,0,0,0,0,0,0,0,0,0,0.9814,0.9815,0,0.9904,0.9905,0.9906,0.9932,0.9931,0.9931,0.993,1.0022,1.0025,1.0028,0,0,0,0,0,0,0,0,0,0,0,0,0,0.9665,0.9668,0.9814,0.9815,0.9816,0.9904,0.9905,0.9906,0.9932,0.9931,0.993,0.993,1.0021,1.0025,1.0028,0,0,0,0,0,0,0,0,0,0,0,0,0,0.974,0.9669,0.9813,0.9839,0.9842,0.9903,0.9905,0.9906,0.9932,0.9931,0.993,0.993,1.002,1.0024,1.0029,1.0071,0,0,1.0042,1.0044,0,0,0,0,0,0,0,0,0.9736,0.9745,0.9834,0.9838,0.9841,0.9906,0.9886,0.9961,0.9932,0.9898,0.993,0.9929,0.9984,0.9991,1.001,1.0075,1.0079,1.0043,1.0045,1.0047,1.0048,0,0,0,0,0,0,0,0.9731,0.9742,0.9849,0.9836,0.984,0.9847,0.9857,0.9901,0.9944,0.9901,0.9903,0.9913,0.9986,1.0006,1.0012,1.008,1.0042,1.0046,1.0049,1.0051,1.0186,1.0187,0,0,0,0,0,0,0.9721,0.9737,0.9846,0.9852,0.9786,0.985,0.9861,0.9886,0.9944,0.9952,0.9914,0.9914,0.9999,1.0007,1.0016,1.007,1.0047,1.0051,1.0054,1.0185,1.0186,1.0187,0,0,0,0,0,0,0.9718,0.973,0.9843,0.9795,0.981,0.9853,0.9881,0.9888,0.9908,0.9953,0.9961,0.9926,0.9998,1.0009,1.0057,1.0073,1.0053,1.0057,1.0184,1.0185,1.0187,1.0177,0,0,0,0,0,0,0.9713,0.9729,0.9745,0.9795,0.9813,0.9882,0.9882,0.989,0.9915,0.9916,0.9967,0.9975,0.9999,1.005,1.0061,1.0079,1.006,1.0183,1.0184,1.0186,1.0176,1.0178,1.0179,0,0,0,0,0,0.9708,0.9738,0.9745,0.9758,0.9833,0.9883,0.9893,0.992,0.9916,0.9933,0.9963,0.9973,1.0069,1.0055,1.0068,1.0087,1.0182,1.0184,1.0186,1.0175,1.0177,1.0179,0,0,0,0,0,0,0.9688,0.9745,0.9754,0.9801,0.9837,0.9887,0.9909,0.9921,0.9959,0.9959,0.9991,1.0002,1.0048,1.0072,1.0055,1.0131,1.0126,1.0131,1.0113,1.0116,1.0118,1.0111,1.0064,0,0,0,0,0,0.9689,0.9725,0.9773,0.981,0.9828,0.9865,0.9888,0.9906,0.9944,0.996,0.9993,1.003,1.0069,1.0094,1.0132,1.018,1.0192,1.0199,1.0201,1.0202,1.0206,1.0234,1.0239,1.0194,1.0194,1.0194,0,0,0.9692,0.9727,0.9748,0.9807,0.9837,0.9874,0.9878,0.9916,0.9944,0.9965,1.0013,1.0038,1.0082,1.013,1.0153,1.0152,1.0221,1.0205,1.0205,1.0209,1.0237,1.0241,1.0245,1.0196,1.0195,1.0195,0,0,0.9716,0.9746,0.9781,0.9811,0.9856,0.9882,0.989,0.9939,0.9957,1.0005,1.0022,1.0056,1.0122,1.0153,1.0177,1.0215,1.0226,1.0226,1.0235,1.0263,1.0266,1.027,1.0284,1.0289,1.023,1.023,1.023,0,0.9713,0.9769,0.9797,0.9835,0.9862,0.9883,0.992,0.9948,1.0003,1.0021,1.0019,1.0103,1.0134,1.019,1.02,1.0218,1.023,1.0221,1.0263,1.0267,1.0271,1.0285,1.029,1.023,1.023,1.023,1.023,0,0.9764,0.9803,0.9826,0.988,0.9908,0.9945,0.998,1.0006,1.0022,1.0047,1.0097,1.0135,1.0182,1.0196,1.0212,1.0256,1.0254,1.0257,1.0253,1.0274,1.0288,1.0294,1.0229,1.0229,1.0229,1.0229,0,0,0.9777,0.9847,0.9856,0.9881,0.9933,0.9964,1.0003,1.0049,1.0071,1.0109,1.0143,1.0199,1.0203,1.023,1.025,1.0274,1.0303,1.0275,1.0276,1.0279,1.0355,1.0353,1.0359,1.0311,1.0312,1.0313,1.0352,0,0.9809,0.9878,0.9906,0.9963,0.9999,1.0021,1.0055,1.0091,1.0117,1.0152,1.018,1.022,1.0221,1.0238,1.0263,1.0294,1.0319,1.0291,1.0343,1.0345,1.0332,1.0366,1.0364,1.0399,1.0358,1.0359,1.0359,0,0.9854,0.9893,0.9954,1.0004,1.002,1.005,1.0096,1.0129,1.0171,1.0188,1.0219,1.0237,1.028,1.0272,1.0332,1.0313,1.0336,1.0354,1.0356,1.0363,1.0354,1.0374,1.0411,1.0417,1.0368,1.0367,1.0367,0,0.9859,0.9927,0.9972,0.9993,1.0052,1.0073,1.0098,1.014,1.0166,1.0206,1.0224,1.0268,1.0292,1.0326,1.0357,1.0348,1.0414,1.0408,1.043,1.0429,1.0443,1.0442,1.0484,1.0456,1.0456,1.0456,1.0455,0,0.9891,0.9928,0.9976,1.0004,1.0046,1.0077,1.0118,1.0145,1.0182,1.0217,1.0238,1.027,1.0307,1.0344,1.0368,1.0414,1.0425,1.044,1.0446,1.0439,1.0437,1.0455,1.0454,1.0457,1.0457,1.0456,1.0456,0,0.9904,0.9937,0.9989,1.004,1.0054,1.0083,1.0128,1.0157,1.0183,1.0227,1.0239,1.0281,1.0325,1.0359,1.0416,1.0432,1.0482,1.0488,1.0468,1.0471,1.0491,1.0489,1.0548,1.0557,1.0521,1.0521,1.0521,0,0.9923,0.9952,1.0007,1.0032,1.0057,1.0097,1.0124,1.0157,1.0185,1.0236,1.0259,1.0305,1.0344,1.0415,1.045,1.0495,1.0503,1.052,1.051,1.0502,1.0505,1.0503,1.0507,1.0522,1.0522,1.0522,1.0522,0,0.9953,0.9969,1.0008,1.0053,1.0086,1.0123,1.0161,1.018,1.0219,1.025,1.0296,1.0326,1.0386,1.0432,1.0481,1.0508,1.0522,1.0525,1.0533,1.0526,1.0514,1.0523,1.0473,1.0524,1.0524,1.0524,1.0524,1.0524,0.9971,0.9998,1.0042,1.0085,1.0117,1.0152,1.0182,1.0213,1.0252,1.0304,1.032,1.0369,1.0412,1.0479,1.0506,1.0545,1.0545,1.0555,1.0558,1.056,1.0561,1.0507,1.0553,1.0553,1.0553,1.0553,1.0553,0,1.0004,1.0033,1.0073,1.0125,1.016,1.017,1.0213,1.0241,1.0284,1.0322,1.0361,1.0415,1.046,1.05,1.0547,1.0571,1.0579,1.0582,1.0581,1.0588,1.0557,1.0547,1.0575,1.0575,1.0575,1.0575,1.0575,1.0575,1.0025,1.0072,1.0093,1.0157,1.0187,1.0234,1.0258,1.0291,1.0322,1.0382,1.042,1.0446,1.0486,1.0536,1.0579,1.0589,1.0606,1.0609,1.0621,1.0592,1.0589,1.0587,1.0577,1.0612,1.0612,1.0648,1.0649,1.0649]}]]